Regional Weather Roundup
Issued by NWS

Home | Current Version | Previous Version | Graphics & Text | Print | Product List | Glossary Off
Versions: 1 2 3 4 5 6 7 8 9 10 11 12 13 14 15 16 17 18 19 20 21 22 23 24 25 26 27 28 29 30 31 32 33 34 35 36 37 38 39 40 41 42 43 44 45 46 47 48 49 50

000
ASUS43 KTOP 020308
RWRKS

WEATHER ROUNDUP FOR KANSAS
NATIONAL WEATHER SERVICE GOODLAND KS
1000 PM CDT TUE SEP 01 2015

NOTE:  "FAIR" INDICATES FEW OR NO CLOUDS BELOW 12,000 FEET WITH NO
SIGNIFICANT WEATHER AND/OR OBSTRUCTIONS TO VISIBILITY.

KSZ001>006-013>018-027>032-041>047-020400-
NORTHWEST KANSAS

CITY           SKY/WX    TMP DP  RH WIND       PRES   REMARKS
GOODLAND       MOCLDY    74  59  59 S10       29.99R
HAYS           MOCLDY    84  57  39 S13       29.92R
HILL CITY      MOCLDY    83  58  42 SW5       29.91R
RUSSELL        PTCLDY    84  60  44 S17G23    29.91R
$$

KSZ061>065-074>080-084>089-020400-
SOUTHWEST KANSAS

CITY           SKY/WX    TMP DP  RH WIND       PRES   REMARKS
DODGE CITY     PTCLDY    80  55  42 S15       29.98R
ELKHART          N/A     74  53  48 MISG        N/A
GARDEN CITY    PTCLDY    77  58  51 SE10      29.97R
GREAT BEND     FAIR      82  61  47 S14       29.94R
LIBERAL        CLOUDY    82  54  36 S10       30.00R
PRATT          PTCLDY    81  55  41 MISG      30.00R
$$

KSZ066>073-081>083-090>101-020400-
SOUTHEAST KANSAS

CITY           SKY/WX    TMP DP  RH WIND       PRES   REMARKS
CHANUTE        CLEAR     76  69  79 SE9       30.03R
COFFEYVILLE    CLEAR     75  69  81 S8        30.02R
HUTCHINSON     PTCLDY    80  67  64 SE13      29.97R
MEDICINE LODGE   N/A     83  61  47 S8        29.97R
NEWTON         PTCLDY    79  63  57 SE13      30.01R
PARSONS        CLEAR     76  70  82 SE3       30.04R
WICHITA INTL   PTCLDY    81  67  62 SE17      29.98R
WICHITA JABRA  PTCLDY    80  67  64 SE14      29.99R
WICHITA MCCONL PTCLDY    80  67  64 SE15      29.99R
WINFIELD       CLEAR     80  68  66 SE13      30.01R
$$

KSZ007>012-019>026-033>040-048>060-102>105-020400-
NORTHEAST KANSAS

CITY           SKY/WX    TMP DP  RH WIND       PRES   REMARKS
CONCORDIA      CLEAR     81  64  56 S21G26    29.93R
EMPORIA        CLEAR     77  66  68 S13       30.01R
LAWRENCE       CLEAR     73  66  78 SE7       30.01R
MANHATTAN      PTCLDY    81  67  62 S14       29.94R
MARYSVILLE     MOCLDY   N/A N/A N/A S10G20    29.94R
OLATHE IND     CLEAR     74  67  78 S7        30.03R
OLATHE EXE     CLEAR     73  68  84 S8        30.03R
SALINA         CLEAR     83  66  56 S15       29.94R
TOPEKA BILLARD CLEAR     78  67  68 SE10      29.99R
TOPEKA FORBES  FAIR      78  67  68 S10       30.00R
$$



USA.gov is the U.S. government's official web portal to all federal, state and local government web resources and services.